Change the Weather History Date:

Friday, January 10, 2014

  Actual Average Record
Temperature  
Mean Temperature 20 °F -  
Max Temperature 32 °F 30 °F 55 °F (1978)
Min Temperature 7 °F 7 °F -10 °F (1958)
Degree Days  
Heating Degree Days 46    
Moisture  
Dew Point 19 °F    
Average Humidity 86    
Maximum Humidity 92    
Minimum Humidity 77    
Precipitation  
Precipitation 0.04 in - - ()
Snow  
Snow 0.00 in - - ()
Snow Depth 3.00 in    
Sea Level Pressure  
Sea Level Pressure 30.45 in    
Wind  
Wind Speed 1 mph (SW)    
Max Wind Speed 6 mph    
Max Gust Speed -    
Visibility 5 miles    
Events Fog , Snow    
Averages and records for this station are not official NWS values.
T = Trace of Precipitation, MM = Missing Value Source: NWS Daily Summary

Daily Weather History Graph

Daily Weather History Graph

Search for Another Location

Airport or City:

Trip Planner

Search our weather history database for the weather conditions in past years. The results will help you decide how hot, cold, wet, or windy it might be!

Date:

Astronomy

Jan. 10, 2014 Rise Set
Actual Time 7:15 AM EST 4:31 PM EST
Civil Twilight 6:44 AM EST 5:02 PM EST
Nautical Twilight 6:08 AM EST 5:38 PM EST
Astronomical Twilight 5:34 AM EST 6:12 PM EST
Moon 12:35 PM EST (1/10) 2:18 AM EST (1/10)
Length of Visible Light 10h 18m
Length of Day
9h 15m
Waxing Gibbous, 75% of the Moon is Illuminated
Jan 10
Waxing Gibbous
Jan 15
Full
Jan 24
Last Quarter
Jan 30
New
Feb 6
First Quarter

Hourly Weather History & Observations

Time (EST) Temp. Windchill Dew Point Humidity Pressure Visibility Wind Dir Wind Speed Gust Speed Precip Events Conditions
12:53 AM 8.1 °F - 3.0 °F 80% 30.62 in 10.0 mi Calm Calm - N/A   Clear
1:53 AM 8.1 °F - 3.9 °F 83% 30.62 in 10.0 mi Calm Calm - N/A   Partly Cloudy
2:53 AM 7.0 °F - 3.0 °F 84% 30.62 in 10.0 mi Calm Calm - N/A   Scattered Clouds
3:53 AM 8.1 °F - 3.0 °F 80% 30.61 in 10.0 mi Calm Calm - N/A   Overcast
4:53 AM 10.0 °F - 5.0 °F 80% 30.58 in 10.0 mi Calm Calm - N/A   Overcast
5:53 AM 10.9 °F - 6.1 °F 81% 30.56 in 10.0 mi Calm Calm - 0.00 in Snow Light Snow
6:28 AM 14.0 °F 8.2 °F 8.1 °F 77% 30.49 in 2.5 mi SW 3.5 mph - 0.00 in Snow Light Snow
6:53 AM 14.0 °F 8.2 °F 9.0 °F 80% 30.56 in 2.5 mi WSW 3.5 mph - 0.00 in Snow Light Snow
7:00 AM 14.0 °F 8.2 °F 10.0 °F 84% 30.48 in 2.5 mi SW 3.5 mph - 0.00 in Snow Light Snow
7:53 AM 15.1 °F - 10.9 °F 84% 30.54 in 2.5 mi Calm Calm - 0.02 in Snow Light Snow
8:48 AM 15.8 °F 10.2 °F 12.2 °F 86% 30.47 in 2.5 mi North 3.5 mph - 0.00 in Snow Light Snow
8:53 AM 16.0 °F - 12.0 °F 84% 30.54 in 2.5 mi Calm Calm - 0.00 in Snow Light Snow
9:53 AM 19.9 °F - 16.0 °F 85% 30.53 in 2.5 mi Calm Calm - 0.00 in   Overcast
10:01 AM 19.9 °F - 16.0 °F 85% 30.46 in 5.0 mi Calm Calm - N/A   Overcast
10:53 AM 23.0 °F 15.8 °F 19.0 °F 85% 30.52 in 6.0 mi SSW 5.8 mph - N/A   Overcast
11:53 AM 27.0 °F 23.0 °F 21.0 °F 78% 30.46 in 8.0 mi SSW 3.5 mph - N/A   Overcast
12:44 PM 27.0 °F 23.0 °F 21.9 °F 81% 30.38 in 2.0 mi SW 3.5 mph - 0.00 in Snow Light Snow
12:48 PM 26.6 °F 22.6 °F 21.2 °F 80% 30.38 in 0.8 mi WSW 3.5 mph - 0.00 in Snow Light Snow
12:53 PM 27.0 °F 23.0 °F 23.0 °F 85% 30.44 in 0.5 mi WSW 3.5 mph - 0.01 in Fog , Snow Snow
1:12 PM 27.0 °F - 24.1 °F 89% 30.36 in 0.5 mi Calm Calm - 0.01 in Fog , Snow Snow
1:53 PM 28.9 °F 25.2 °F 26.1 °F 89% 30.42 in 4.0 mi South 3.5 mph - 0.01 in   Mostly Cloudy
2:53 PM 30.9 °F 26.2 °F 28.0 °F 89% 30.41 in 9.0 mi South 4.6 mph - N/A   Overcast
3:53 PM 32.0 °F 27.5 °F 28.0 °F 85% 30.40 in 10.0 mi South 4.6 mph - N/A   Overcast
4:53 PM 30.9 °F - 28.0 °F 89% 30.39 in 10.0 mi Calm Calm - N/A   Mostly Cloudy
5:53 PM 30.0 °F 25.2 °F 27.0 °F 88% 30.38 in 7.0 mi South 4.6 mph - N/A   Scattered Clouds
6:24 PM 28.0 °F - 26.1 °F 92% 30.32 in 5.0 mi Calm Calm - N/A   Mostly Cloudy
6:53 PM 28.0 °F - 25.0 °F 88% 30.39 in 6.0 mi Calm Calm - N/A   Mostly Cloudy
7:26 PM 27.0 °F - 25.0 °F 92% 30.32 in 4.0 mi Calm Calm - N/A   Overcast
7:53 PM 28.0 °F - 26.1 °F 92% 30.38 in 4.0 mi Calm Calm - N/A   Overcast
8:53 PM 27.0 °F - 25.0 °F 92% 30.37 in 5.0 mi Calm Calm - N/A   Mostly Cloudy
9:53 PM 28.9 °F 25.2 °F 27.0 °F 92% 30.36 in 4.0 mi NW 3.5 mph - N/A   Overcast
10:11 PM 28.9 °F - 27.0 °F 92% 30.29 in 4.0 mi Calm Calm - N/A   Overcast
10:21 PM 28.9 °F - 27.0 °F 92% 30.29 in 4.0 mi Calm Calm - N/A   Overcast
10:53 PM 28.9 °F 25.2 °F 27.0 °F 92% 30.33 in 4.0 mi North 3.5 mph - N/A   Overcast
11:53 PM 30.0 °F - 27.0 °F 88% 30.31 in 4.0 mi Calm Calm - N/A   Overcast